Hampden Park (Glasgow), United Kingdom

9:02 PM GMT on November 23, 2017 (GMT +0000)
Hampden Park (Glasgow)

Weather History for 03140 - April, 2014

Change the Weather History Date:

Friday, April 11, 2014

  Actual Average Record
Temperature  
Mean Temperature 44 °F -  
Max Temperature 51 °F 54 °F - ()
Min Temperature 37 °F 39 °F - ()
Degree Days  
Heating Degree Days 21    
Moisture  
Dew Point 40 °F    
Average Humidity 82    
Maximum Humidity 93    
Minimum Humidity 66    
Precipitation  
Precipitation 0.00 in - - ()
Sea Level Pressure  
Sea Level Pressure 30.11 in    
Wind  
Wind Speed 8 mph ()    
Max Wind Speed 18 mph    
Max Gust Speed -    
Visibility 6.2 miles    
Events Rain    
T = Trace of Precipitation, MM = Missing Value Source: Averaged Metar Reports

Daily Weather History Graph

Daily Weather History Graph

Search for Another Location

Airport or City:

Trip Planner

Search our weather history database for the weather conditions in past years. The results will help you decide how hot, cold, wet, or windy it might be!

Date:

Astronomy

Apr. 11, 2014 Rise Set
Actual Time 6:23 AM BST 8:15 PM BST
Civil Twilight 5:43 AM BST 8:55 PM BST
Nautical Twilight 4:54 AM BST 9:44 PM BST
Astronomical Twilight 3:57 AM BST 10:43 PM BST
Moon 4:07 PM BST (4/11) 4:50 AM BST (4/11)
Length of Visible Light 15h 11m
Length of Day
13h 52m
Waxing Gibbous, 85% of the Moon is Illuminated
Apr 11
Waxing Gibbous
Apr 15
Full
Apr 22
Last Quarter
Apr 29
New
May 7
First Quarter

Hourly Weather History & Observations

Time (BST) Temp. Windchill Dew Point Humidity Pressure Visibility Wind Dir Wind Speed Gust Speed Precip Events Conditions
12:20 AM 42.8 °F 38.0 °F 37.4 °F 81% 30.12 in - West 8.1 mph - N/A   Clear
12:50 AM 42.8 °F 38.6 °F 37.4 °F 81% 30.15 in - WSW 6.9 mph - N/A   Clear
1:20 AM 41.0 °F 35.2 °F 37.4 °F 87% 30.15 in - WSW 9.2 mph - N/A   Clear
1:50 AM 39.2 °F 35.9 °F 35.6 °F 87% 30.12 in - SW 4.6 mph - N/A   Clear
2:20 AM 42.8 °F 40.1 °F 39.2 °F 87% 30.12 in - NE 4.6 mph - N/A   Clear
2:50 AM 39.2 °F 37.0 °F 37.4 °F 93% 30.12 in - Variable 3.5 mph - N/A   Clear
3:20 AM 41.0 °F - 37.4 °F 87% 30.12 in 6.2 mi Variable 2.3 mph - N/A   Partly Cloudy
3:50 AM 39.2 °F - 35.6 °F 87% 30.15 in 6.2 mi Variable 2.3 mph - N/A   Unknown
4:20 AM 37.4 °F 33.8 °F 35.6 °F 93% 30.12 in 6.2 mi North 4.6 mph - N/A   Scattered Clouds
4:50 AM 41.0 °F - 39.2 °F 93% 30.15 in 6.2 mi Calm Calm - N/A Rain Light Rain Showers
5:20 AM 41.0 °F - 39.2 °F 93% 30.15 in 6.2 mi Variable 2.3 mph - N/A   Partly Cloudy
5:50 AM 39.2 °F 37.0 °F 37.4 °F 93% 30.15 in 6.2 mi West 3.5 mph - N/A   Partly Cloudy
6:20 AM 39.2 °F 35.0 °F 37.4 °F 93% 30.15 in 6.2 mi West 5.8 mph - N/A   Partly Cloudy
6:50 AM 39.2 °F 35.9 °F 37.4 °F 93% 30.15 in 6.2 mi West 4.6 mph - N/A   Partly Cloudy
7:20 AM 41.0 °F 37.1 °F 39.2 °F 93% 30.15 in 6.2 mi WSW 5.8 mph - N/A   Scattered Clouds
7:50 AM 42.8 °F 41.1 °F 41.0 °F 93% 30.15 in 6.2 mi West 3.5 mph - N/A   Partly Cloudy
8:20 AM 44.6 °F 43.1 °F 42.8 °F 93% 30.15 in 6.2 mi WSW 3.5 mph - N/A   Partly Cloudy
8:50 AM 48.2 °F - 42.8 °F 82% 30.15 in 6.2 mi WSW 8.1 mph - N/A   Partly Cloudy
9:20 AM 48.2 °F - 42.8 °F 82% 30.15 in 6.2 mi WSW 11.5 mph - N/A   Scattered Clouds
9:50 AM 48.2 °F - 41.0 °F 76% 30.15 in 6.2 mi WSW 12.7 mph - N/A   Scattered Clouds
10:20 AM 50.0 °F - 41.0 °F 71% 30.15 in 6.2 mi WSW 13.8 mph - N/A   Mostly Cloudy
10:50 AM 48.2 °F - 41.0 °F 76% 30.15 in 6.2 mi WSW 12.7 mph - N/A   Mostly Cloudy
11:20 AM 50.0 °F - 44.6 °F 82% 30.15 in 6.2 mi SW 11.5 mph - N/A   Mostly Cloudy
11:50 AM 48.2 °F - 42.8 °F 82% 30.15 in 6.2 mi WSW 10.4 mph - N/A   Mostly Cloudy
12:20 PM 50.0 °F - 42.8 °F 76% 30.15 in 6.2 mi SW 16.1 mph - N/A   Mostly Cloudy
12:50 PM 50.0 °F - 41.0 °F 71% 30.15 in 6.2 mi WSW 15.0 mph - N/A   Mostly Cloudy
1:20 PM 51.8 °F - 41.0 °F 67% 30.12 in 6.2 mi SW 18.4 mph - N/A   Mostly Cloudy
1:50 PM 50.0 °F - 39.2 °F 66% 30.12 in 6.2 mi WSW 18.4 mph - N/A   Mostly Cloudy
2:20 PM 50.0 °F - 41.0 °F 71% 30.12 in 6.2 mi West 16.1 mph - N/A   Mostly Cloudy
2:50 PM 50.0 °F - 39.2 °F 66% 30.12 in 6.2 mi WSW 16.1 mph - N/A   Mostly Cloudy
3:20 PM 50.0 °F - 41.0 °F 71% 30.12 in 6.2 mi WSW 15.0 mph - N/A   Mostly Cloudy
3:50 PM 50.0 °F - 41.0 °F 71% 30.12 in 6.2 mi WSW 16.1 mph - N/A   Mostly Cloudy
4:20 PM 50.0 °F - 39.2 °F 66% 30.09 in 6.2 mi WSW 15.0 mph - N/A   Mostly Cloudy
4:50 PM 50.0 °F - 41.0 °F 71% 30.09 in 6.2 mi WSW 13.8 mph - N/A   Mostly Cloudy
5:20 PM 48.2 °F - 42.8 °F 82% 30.09 in 6.2 mi SW 13.8 mph - N/A   Mostly Cloudy
5:50 PM 48.2 °F - 42.8 °F 82% 30.09 in 6.2 mi WSW 10.4 mph - N/A Rain Light Rain Showers
6:20 PM 46.4 °F 41.1 °F 42.8 °F 87% 30.09 in 6.2 mi West 11.5 mph - N/A   Mostly Cloudy
6:50 PM 46.4 °F 40.4 °F 42.8 °F 87% 30.06 in 6.2 mi West 13.8 mph - N/A   Mostly Cloudy
7:20 PM 46.4 °F 41.9 °F 41.0 °F 81% 30.06 in 6.2 mi WSW 9.2 mph - N/A   Mostly Cloudy
7:50 PM 46.4 °F 41.9 °F 41.0 °F 81% 30.06 in 6.2 mi SW 9.2 mph - N/A   Mostly Cloudy
8:20 PM 46.4 °F 41.9 °F 42.8 °F 87% 30.06 in 6.2 mi SW 9.2 mph - N/A   Mostly Cloudy
8:50 PM 46.4 °F 42.4 °F 42.8 °F 87% 30.06 in 6.2 mi SW 8.1 mph - N/A   Mostly Cloudy
9:20 PM 46.4 °F 42.4 °F 42.8 °F 87% 30.06 in 6.2 mi SSW 8.1 mph - N/A   Mostly Cloudy
9:50 PM 46.4 °F 43.5 °F 41.0 °F 81% 30.04 in 6.2 mi SW 5.8 mph - N/A   Mostly Cloudy
10:20 PM 46.4 °F 42.9 °F 42.8 °F 87% 30.04 in 6.2 mi SW 6.9 mph - N/A   Mostly Cloudy
10:50 PM 46.4 °F 41.9 °F 42.8 °F 87% 30.01 in 6.2 mi SW 9.2 mph - N/A   Mostly Cloudy
11:20 PM 46.4 °F 41.1 °F 42.8 °F 87% 30.01 in 6.2 mi WSW 11.5 mph - N/A   Mostly Cloudy
11:50 PM 48.2 °F - 42.8 °F 82% 29.98 in 6.2 mi SW 12.7 mph - N/A   Mostly Cloudy